Debrecen, Hungary

11:09 PM CET on December 06, 2016 (GMT +0100)
Debrecen

Weather History for LHDC - June, 2013

Change the Weather History Date:

Friday, June 14, 2013

  Actual Average Record
Temperature  
Mean Temperature 70 °F -  
Max Temperature 82 °F - - ()
Min Temperature 59 °F - - ()
Cooling Degree Days 6    
Growing Degree Days 20 (Base 50)    
Moisture  
Dew Point 57 °F    
Average Humidity 53    
Maximum Humidity 82    
Minimum Humidity 31    
Precipitation  
Precipitation 0.00 in - - ()
Sea Level Pressure  
Sea Level Pressure 30.00 in    
Wind  
Wind Speed 4 mph ()    
Max Wind Speed 10 mph    
Max Gust Speed -    
Visibility 7.3 miles    
Events      
T = Trace of Precipitation, MM = Missing Value Source: Averaged Metar Reports

Daily Weather History Graph

Daily Weather History Graph

Search for Another Location

Airport or City:

Trip Planner

Search our weather history database for the weather conditions in past years. The results will help you decide how hot, cold, wet, or windy it might be!

Date:

Astronomy

Jun. 14, 2013 Rise Set
Actual Time 4:35 AM CEST 8:32 PM CEST
Civil Twilight 3:55 AM CEST 9:12 PM CEST
Nautical Twilight 2:59 AM CEST 10:08 PM CEST
Astronomical Twilight 1:33 AM CEST 11:35 PM CEST
Moon 10:12 AM CEST (6/14) 11:36 PM CEST (6/14)
Length of Visible Light 17h 17m
Length of Day
15h 56m
Waxing Crescent, 28% of the Moon is Illuminated
Jun 14
Waxing Crescent
Jun 16
First Quarter
Jun 23
Full
Jun 30
Last Quarter
Jul 8
New

Hourly Weather History & Observations

Time (CEST) Temp. Heat Index Dew Point Humidity Pressure Visibility Wind Dir Wind Speed Gust Speed Precip Events Conditions
2:00 AM 65 °F - 56 °F 65% 30.00 in - NNW 2.2 mph - -  
4:45 AM 60.8 °F - 55.4 °F 82% 30.01 in - NNW 2.3 mph - N/A   Clear
5:45 AM 60.8 °F - 55.4 °F 82% 30.01 in - Calm Calm - N/A   Clear
6:15 AM 62.6 °F - 57.2 °F 82% 30.01 in - NNW 1.2 mph - N/A   Clear
6:45 AM 66.2 °F - 59.0 °F 78% 30.01 in - NNE 2.3 mph - N/A   Clear
7:00 AM - - - N/A% - 6.2 mi Variable 2.3 mph - N/A   Clear
7:15 AM 68.0 °F - 59.0 °F 73% 30.01 in - ENE 2.3 mph - N/A   Clear
7:45 AM 69.8 °F - 59.0 °F 68% 30.01 in - NNE 2.3 mph - N/A   Clear
8:00 AM 70 °F - 59 °F 61% 30.01 in 16 mi NNE 2.2 mph - -   Partly Cloudy
8:15 AM 71.6 °F - 60.8 °F 69% 30.01 in - Calm Calm - N/A   Clear
8:45 AM 73.4 °F - 60.8 °F 65% 30.04 in - West 2.3 mph - N/A   Clear
9:15 AM 75.2 °F - 59.0 °F 57% 30.04 in - West 2.3 mph - N/A   Clear
9:45 AM 75.2 °F - 60.8 °F 61% 30.04 in 6.2 mi West 3.5 mph - N/A   Partly Cloudy
10:00 AM - - - N/A% - - Variable 3.5 mph - N/A   Clear
10:15 AM 77.0 °F - 59.0 °F 54% 30.04 in 6.2 mi NW 4.6 mph - N/A   Partly Cloudy
10:45 AM 78.8 °F - 60.8 °F 54% 30.04 in 6.2 mi WNW 5.8 mph - N/A   Partly Cloudy
11:15 AM 77.0 °F - 60.8 °F 57% 30.04 in 6.2 mi West 6.9 mph - N/A   Partly Cloudy
11:45 AM 78.8 °F - 60.8 °F 54% 30.01 in 6.2 mi WNW 6.9 mph - N/A   Partly Cloudy
12:15 PM 78.8 °F - 59.0 °F 51% 30.01 in 6.2 mi WNW 6.9 mph - N/A   Partly Cloudy
12:45 PM 80.6 °F 81.1 °F 59.0 °F 48% 30.01 in 6.2 mi NNW 4.6 mph - N/A   Scattered Clouds
1:00 PM - - - N/A% - - WNW 8.1 mph - N/A   Clear
1:45 PM 80.6 °F 80.5 °F 55.4 °F 42% 30.01 in - West 6.9 mph - N/A   Clear
2:00 PM 81 °F - 55 °F 31% 29.99 in 22 mi West 6.7 mph - -   Partly Cloudy
2:15 PM 82.4 °F 81.7 °F 55.4 °F 39% 30.01 in - WNW 6.9 mph - N/A   Clear
2:45 PM 82.4 °F 81.4 °F 53.6 °F 37% 29.98 in - WNW 6.9 mph - N/A   Clear
3:15 PM 82.4 °F 81.7 °F 55.4 °F 39% 29.98 in - WNW 10.4 mph - N/A   Clear
3:45 PM 82.4 °F 81.4 °F 53.6 °F 37% 29.98 in - NW 9.2 mph - N/A   Clear
4:00 PM - - - N/A% - - WNW 9.2 mph - N/A   Clear
4:15 PM 82.4 °F 81.4 °F 53.6 °F 37% 29.98 in - NNW 10.4 mph - N/A   Clear
4:45 PM 82.4 °F 81.4 °F 53.6 °F 37% 29.98 in - NW 9.2 mph - N/A   Clear
5:15 PM 82.4 °F 81.7 °F 55.4 °F 39% 29.98 in - NW 6.9 mph - N/A   Clear
5:45 PM 82.4 °F 81.7 °F 55.4 °F 39% 29.98 in - NW 6.9 mph - N/A   Clear
6:15 PM 82.4 °F 81.4 °F 53.6 °F 37% 29.98 in - NW 6.9 mph - N/A   Clear
6:45 PM 80.6 °F 80.3 °F 53.6 °F 39% 29.98 in - NNW 5.8 mph - N/A   Clear
7:15 PM 80.6 °F 80.3 °F 53.6 °F 39% 29.98 in - NNW 5.8 mph - N/A   Clear
7:45 PM 78.8 °F - 57.2 °F 47% 29.98 in - WNW 4.6 mph - N/A   Clear
8:00 PM 79 °F - 57 °F 37% 29.96 in 25 mi WNW 4.5 mph - -   Partly Cloudy
8:15 PM 77.0 °F - 59.0 °F 54% 29.98 in - WNW 3.5 mph - N/A   Clear
8:45 PM 75.2 °F - 60.8 °F 61% 29.98 in - WNW 5.8 mph - N/A   Clear
10:00 PM - - - N/A% - - North - - N/A   Unknown